Time,TemperatureF,DewpointF,PressureIn,WindDirection,WindDirectionDegrees,WindSpeedMPH,WindSpeedGustMPH,Humidity,HourlyPrecipIn,Conditions,Clouds,dailyrainin,SoftwareType,DateUTC
2013-06-23 00:11:00,73.0,65.0,30.18,SSE,167,0.0,0.0,76,0.00,,,0.00,,2013-06-23 04:11:00,
2013-06-23 00:21:00,73.0,65.0,30.18,SSE,167,0.0,0.0,76,0.00,,,0.00,,2013-06-23 04:21:00,
2013-06-23 00:31:00,73.0,65.0,30.18,SSE,167,0.0,0.0,76,0.00,,,0.00,,2013-06-23 04:31:00,
2013-06-23 00:42:00,73.0,65.0,30.18,SSE,167,0.0,0.0,76,0.00,,,0.00,,2013-06-23 04:42:00,
2013-06-23 01:32:00,71.0,66.0,30.19,SSE,167,0.0,0.0,84,0.00,,,0.00,,2013-06-23 05:32:00,
2013-06-23 01:42:00,71.0,66.0,30.19,SSE,167,0.0,0.0,85,0.00,,,0.00,,2013-06-23 05:42:00,
2013-06-23 01:52:00,71.0,66.0,30.19,SSE,167,0.0,0.0,85,0.00,,,0.00,,2013-06-23 05:52:00,
2013-06-23 02:02:00,71.0,66.0,30.19,SSE,167,0.0,0.0,85,0.00,,,0.00,,2013-06-23 06:02:00,
2013-06-23 02:12:00,71.0,65.0,30.18,SSE,167,0.0,0.0,81,0.00,,,0.00,,2013-06-23 06:12:00,
2013-06-23 02:22:00,70.0,64.0,30.18,South,175,0.0,0.0,81,0.00,,,0.00,,2013-06-23 06:22:00,
2013-06-23 02:33:00,70.0,64.0,30.18,South,175,0.0,0.0,81,0.00,,,0.00,,2013-06-23 06:33:00,
2013-06-23 02:43:00,70.0,64.0,30.17,South,175,0.0,0.0,81,0.00,,,0.00,,2013-06-23 06:43:00,
2013-06-23 02:52:00,70.0,64.0,30.16,South,175,0.0,0.0,82,0.00,,,0.00,,2013-06-23 06:52:00,
2013-06-23 03:02:00,70.0,64.0,30.16,South,175,0.0,0.0,82,0.00,,,0.00,,2013-06-23 07:02:00,
2013-06-23 03:12:00,69.0,64.0,30.15,South,175,0.0,0.0,83,0.00,,,0.00,,2013-06-23 07:12:00,
2013-06-23 03:22:00,69.0,64.0,30.15,South,175,0.0,0.0,85,0.00,,,0.00,,2013-06-23 07:22:00,
2013-06-23 03:34:00,69.0,64.0,30.15,South,175,0.0,0.0,85,0.00,,,0.00,,2013-06-23 07:34:00,
2013-06-23 03:43:00,69.0,65.0,30.15,South,175,0.0,0.0,87,0.00,,,0.00,,2013-06-23 07:43:00,
2013-06-23 03:53:00,69.0,66.0,30.14,South,175,0.0,0.0,89,0.00,,,0.00,,2013-06-23 07:53:00,
2013-06-23 04:02:00,69.0,66.0,30.14,South,175,0.0,0.0,89,0.00,,,0.00,,2013-06-23 08:02:00,
2013-06-23 04:12:00,68.0,65.0,30.14,South,175,0.0,0.0,89,0.00,,,0.00,,2013-06-23 08:12:00,
2013-06-23 04:22:00,68.0,65.0,30.14,South,175,0.0,0.0,90,0.00,,,0.00,,2013-06-23 08:22:00,
2013-06-23 04:34:00,68.0,65.0,30.14,South,175,0.0,0.0,90,0.00,,,0.00,,2013-06-23 08:34:00,
2013-06-23 04:43:00,68.0,65.0,30.15,West,278,0.0,5.0,89,0.00,,,0.00,,2013-06-23 08:43:00,
2013-06-23 04:53:00,68.0,64.0,30.15,West,278,0.0,0.0,88,0.00,,,0.00,,2013-06-23 08:53:00,
2013-06-23 05:02:00,68.0,64.0,30.15,West,278,0.0,0.0,88,0.00,,,0.00,,2013-06-23 09:02:00,
2013-06-23 05:12:00,68.0,64.0,30.15,West,278,0.0,0.0,88,0.00,,,0.00,,2013-06-23 09:12:00,
2013-06-23 05:22:00,67.0,64.0,30.15,West,278,0.0,0.0,89,0.00,,,0.00,,2013-06-23 09:22:00,
2013-06-23 05:34:00,67.0,64.0,30.15,West,278,0.0,0.0,89,0.00,,,0.00,,2013-06-23 09:34:00,
2013-06-23 05:43:00,67.0,64.0,30.16,West,278,0.0,0.0,89,0.00,,,0.00,,2013-06-23 09:43:00,
2013-06-23 05:53:00,67.0,64.0,30.16,West,278,0.0,0.0,89,0.00,,,0.00,,2013-06-23 09:53:00,
2013-06-23 06:02:00,67.0,64.0,30.16,West,278,0.0,0.0,89,0.00,,,0.00,,2013-06-23 10:02:00,
2013-06-23 06:11:00,67.0,64.0,30.17,West,278,0.0,0.0,90,0.00,,,0.00,,2013-06-23 10:11:00,
2013-06-23 06:22:00,67.0,64.0,30.18,West,278,0.0,0.0,90,0.00,,,0.00,,2013-06-23 10:22:00,
2013-06-23 06:34:00,67.0,64.0,30.18,West,278,0.0,0.0,90,0.00,,,0.00,,2013-06-23 10:34:00,
2013-06-23 06:43:00,67.0,64.0,30.19,West,278,0.0,0.0,90,0.00,,,0.00,,2013-06-23 10:43:00,
2013-06-23 06:53:00,67.0,64.0,30.19,West,278,0.0,0.0,91,0.00,,,0.00,,2013-06-23 10:53:00,
2013-06-23 07:02:00,67.0,64.0,30.19,West,278,0.0,0.0,91,0.00,,,0.00,,2013-06-23 11:02:00,
2013-06-23 07:11:00,67.0,65.0,30.20,West,278,0.0,0.0,92,0.00,,,0.00,,2013-06-23 11:11:00,
2013-06-23 07:22:00,67.0,65.0,30.20,West,278,0.0,0.0,92,0.00,,,0.00,,2013-06-23 11:22:00,
2013-06-23 07:33:00,67.0,65.0,30.20,West,278,0.0,0.0,92,0.00,,,0.00,,2013-06-23 11:33:00,
2013-06-23 07:43:00,68.0,66.0,30.21,West,278,0.0,0.0,93,0.00,,,0.00,,2013-06-23 11:43:00,
2013-06-23 07:53:00,68.0,66.0,30.22,West,278,0.0,0.0,93,0.00,,,0.00,,2013-06-23 11:53:00,
2013-06-23 08:01:00,68.0,66.0,30.22,West,278,0.0,0.0,93,0.00,,,0.00,,2013-06-23 12:01:00,
2013-06-23 08:12:00,69.0,67.0,30.22,West,278,0.0,0.0,93,0.00,,,0.00,,2013-06-23 12:12:00,
2013-06-23 08:22:00,69.0,67.0,30.22,West,278,0.0,0.0,93,0.00,,,0.00,,2013-06-23 12:22:00,
2013-06-23 08:33:00,69.0,67.0,30.22,West,278,0.0,0.0,93,0.00,,,0.00,,2013-06-23 12:33:00,
2013-06-23 08:42:00,70.0,68.0,30.23,West,278,0.0,0.0,93,0.00,,,0.00,,2013-06-23 12:42:00,
2013-06-23 08:53:00,71.0,69.0,30.24,West,278,0.0,0.0,92,0.00,,,0.00,,2013-06-23 12:53:00,
2013-06-23 09:02:00,71.0,69.0,30.24,West,278,0.0,0.0,92,0.00,,,0.00,,2013-06-23 13:02:00,
2013-06-23 09:11:00,72.0,69.0,30.24,West,278,0.0,0.0,91,0.00,,,0.00,,2013-06-23 13:11:00,
2013-06-23 09:23:00,72.0,69.0,30.24,SSE,168,0.0,1.0,89,0.00,,,0.00,,2013-06-23 13:23:00,
2013-06-23 09:34:00,72.0,69.0,30.24,SSE,168,0.0,1.0,89,0.00,,,0.00,,2013-06-23 13:34:00,
2013-06-23 09:43:00,72.0,68.0,30.24,SSE,167,0.0,0.0,87,0.00,,,0.00,,2013-06-23 13:43:00,
2013-06-23 09:53:00,73.0,68.0,30.24,SSE,168,1.0,2.0,85,0.00,,,0.00,,2013-06-23 13:53:00,
2013-06-23 10:05:00,73.0,68.0,30.24,SSE,168,1.0,2.0,85,0.00,,,0.00,,2013-06-23 14:05:00,
2013-06-23 10:11:00,73.0,67.0,30.24,SSE,168,0.0,0.0,82,0.00,,,0.00,,2013-06-23 14:11:00,
2013-06-23 10:22:00,74.0,67.0,30.24,SSE,165,0.0,3.0,80,0.00,,,0.00,,2013-06-23 14:22:00,
2013-06-23 10:34:00,74.0,67.0,30.24,SSE,165,0.0,3.0,80,0.00,,,0.00,,2013-06-23 14:34:00,
2013-06-23 10:44:00,75.0,68.0,30.24,SSE,165,0.0,2.0,79,0.00,,,0.00,,2013-06-23 14:44:00,
2013-06-23 10:52:00,75.0,67.0,30.24,SSE,152,1.0,5.0,77,0.00,,,0.00,,2013-06-23 14:52:00,
2013-06-23 11:05:00,75.0,67.0,30.24,SSE,152,1.0,5.0,77,0.00,,,0.00,,2013-06-23 15:05:00,
2013-06-23 11:12:00,76.0,68.0,30.24,SSE,155,0.0,0.0,76,0.00,,,0.00,,2013-06-23 15:12:00,
2013-06-23 11:23:00,77.0,68.0,30.24,SSE,150,0.0,2.0,75,0.00,,,0.00,,2013-06-23 15:23:00,
2013-06-23 11:35:00,77.0,68.0,30.24,SSE,150,0.0,2.0,75,0.00,,,0.00,,2013-06-23 15:35:00,
2013-06-23 11:43:00,77.0,68.0,30.24,SSE,160,0.0,5.0,74,0.00,,,0.00,,2013-06-23 15:43:00,
2013-06-23 11:52:00,78.0,68.0,30.24,SSE,158,0.0,1.0,71,0.00,,,0.00,,2013-06-23 15:52:00,
2013-06-23 12:06:00,78.0,68.0,30.24,SSE,158,0.0,1.0,71,0.00,,,0.00,,2013-06-23 16:06:00,
2013-06-23 12:12:00,79.0,68.0,30.24,SSE,147,0.0,1.0,70,0.00,,,0.00,,2013-06-23 16:12:00,
2013-06-23 12:22:00,79.0,68.0,30.24,SSE,151,0.0,3.0,70,0.00,,,0.00,,2013-06-23 16:22:00,
2013-06-23 12:36:00,79.0,68.0,30.24,SSE,151,0.0,3.0,70,0.00,,,0.00,,2013-06-23 16:36:00,
2013-06-23 12:43:00,81.0,69.0,30.23,South,172,1.0,6.0,67,0.00,,,0.00,,2013-06-23 16:43:00,
2013-06-23 12:53:00,81.0,69.0,30.22,SSE,148,0.0,2.0,66,0.00,,,0.00,,2013-06-23 16:53:00,
2013-06-23 13:06:00,81.0,69.0,30.22,SSE,148,0.0,2.0,66,0.00,,,0.00,,2013-06-23 17:06:00,
2013-06-23 13:12:00,80.0,68.0,30.22,SE,144,0.0,5.0,66,0.00,,,0.00,,2013-06-23 17:12:00,
2013-06-23 13:22:00,80.0,68.0,30.22,SSE,147,0.0,2.0,67,0.00,,,0.00,,2013-06-23 17:22:00,
2013-06-23 13:33:00,80.0,68.0,30.22,SSE,147,0.0,2.0,67,0.00,,,0.00,,2013-06-23 17:33:00,
2013-06-23 13:43:00,81.0,69.0,30.21,SSE,157,0.0,5.0,67,0.00,,,0.00,,2013-06-23 17:43:00,
2013-06-23 13:53:00,82.0,69.0,30.20,SE,143,0.0,6.0,66,0.00,,,0.00,,2013-06-23 17:53:00,
2013-06-23 14:01:00,82.0,69.0,30.20,SE,143,0.0,6.0,66,0.00,,,0.00,,2013-06-23 18:01:00,
2013-06-23 14:12:00,81.0,68.0,30.19,SE,143,1.0,5.0,64,0.00,,,0.00,,2013-06-23 18:12:00,
2013-06-23 14:22:00,83.0,68.0,30.19,SE,137,1.0,6.0,61,0.00,,,0.00,,2013-06-23 18:22:00,
2013-06-23 14:34:00,83.0,68.0,30.19,SE,137,1.0,6.0,61,0.00,,,0.00,,2013-06-23 18:34:00,
2013-06-23 14:43:00,82.0,68.0,30.18,SSE,155,0.0,3.0,62,0.00,,,0.00,,2013-06-23 18:43:00,
2013-06-23 14:53:00,82.0,68.0,30.18,SE,144,0.0,5.0,62,0.00,,,0.00,,2013-06-23 18:53:00,
2013-06-23 15:01:00,82.0,68.0,30.18,SE,144,0.0,5.0,62,0.00,,,0.00,,2013-06-23 19:01:00,
2013-06-23 15:11:00,82.0,69.0,30.17,SSE,160,1.0,5.0,64,0.00,,,0.00,,2013-06-23 19:11:00,
2013-06-23 15:21:00,83.0,69.0,30.16,South,188,0.0,2.0,62,0.00,,,0.00,,2013-06-23 19:21:00,
2013-06-23 15:32:00,83.0,69.0,30.16,South,188,0.0,2.0,62,0.00,,,0.00,,2013-06-23 19:32:00,
2013-06-23 15:43:00,85.0,68.0,30.16,WSW,256,1.0,7.0,57,0.00,,,0.00,,2013-06-23 19:43:00,
2013-06-23 15:53:00,85.0,69.0,30.16,SSW,198,1.0,8.0,58,0.00,,,0.00,,2013-06-23 19:53:00,
2013-06-23 16:02:00,85.0,69.0,30.16,SSW,198,1.0,8.0,58,0.00,,,0.00,,2013-06-23 20:02:00,
2013-06-23 16:12:00,86.0,67.0,30.15,SSE,151,1.0,3.0,53,0.00,,,0.00,,2013-06-23 20:12:00,
2013-06-23 16:24:00,85.0,67.0,30.15,SSE,147,0.0,5.0,55,0.00,,,0.00,,2013-06-23 20:24:00,
2013-06-23 16:33:00,85.0,67.0,30.15,SSE,147,0.0,5.0,55,0.00,,,0.00,,2013-06-23 20:33:00,
2013-06-23 16:42:00,83.0,67.0,30.15,SSE,150,0.0,3.0,59,0.00,,,0.00,,2013-06-23 20:42:00,
2013-06-23 16:53:00,83.0,68.0,30.15,SSE,150,0.0,0.0,61,0.00,,,0.00,,2013-06-23 20:53:00,
2013-06-23 17:01:00,83.0,68.0,30.15,SSE,150,0.0,0.0,61,0.00,,,0.00,,2013-06-23 21:01:00,
2013-06-23 17:12:00,83.0,68.0,30.15,SSE,152,1.0,3.0,61,0.00,,,0.00,,2013-06-23 21:12:00,
2013-06-23 17:22:00,84.0,68.0,30.15,SW,236,1.0,5.0,59,0.00,,,0.00,,2013-06-23 21:22:00,
2013-06-23 17:34:00,84.0,68.0,30.15,SW,236,1.0,5.0,59,0.00,,,0.00,,2013-06-23 21:34:00,
2013-06-23 17:44:00,84.0,67.0,30.15,South,169,2.0,4.0,57,0.00,,,0.00,,2013-06-23 21:44:00,
2013-06-23 17:52:00,84.0,68.0,30.15,South,181,0.0,5.0,59,0.00,,,0.00,,2013-06-23 21:52:00,
2013-06-23 18:01:00,84.0,68.0,30.15,South,181,0.0,5.0,59,0.00,,,0.00,,2013-06-23 22:01:00,
2013-06-23 18:12:00,83.0,68.0,30.14,SE,143,0.0,2.0,61,0.00,,,0.00,,2013-06-23 22:12:00,
2013-06-23 18:22:00,83.0,69.0,30.12,SE,143,0.0,1.0,63,0.00,,,0.00,,2013-06-23 22:22:00,
2013-06-23 18:32:00,83.0,69.0,30.12,SE,143,0.0,1.0,63,0.00,,,0.00,,2013-06-23 22:32:00,
2013-06-23 18:43:00,83.0,69.0,30.11,SE,143,0.0,0.0,62,0.00,,,0.00,,2013-06-23 22:43:00,
2013-06-23 18:53:00,83.0,68.0,30.11,SE,143,0.0,3.0,60,0.00,,,0.00,,2013-06-23 22:53:00,
2013-06-23 19:01:00,83.0,68.0,30.11,SE,143,0.0,3.0,60,0.00,,,0.00,,2013-06-23 23:01:00,
2013-06-23 19:11:00,83.0,68.0,30.11,SSE,157,0.0,2.0,60,0.00,,,0.00,,2013-06-23 23:11:00,
2013-06-23 19:22:00,82.0,69.0,30.11,South,181,0.0,0.0,65,0.00,,,0.00,,2013-06-23 23:22:00,
2013-06-23 19:33:00,82.0,69.0,30.11,South,181,0.0,0.0,65,0.00,,,0.00,,2013-06-23 23:33:00,
2013-06-23 19:44:00,81.0,68.0,30.11,SSE,148,0.0,2.0,64,0.00,,,0.00,,2013-06-23 23:44:00,
2013-06-23 19:52:00,81.0,68.0,30.11,SE,137,0.0,1.0,65,0.00,,,0.00,,2013-06-23 23:52:00,
2013-06-23 20:01:00,81.0,68.0,30.11,SE,137,0.0,1.0,65,0.00,,,0.00,,2013-06-24 00:01:00,
2013-06-23 20:11:00,80.0,68.0,30.12,SSE,154,0.0,2.0,66,0.00,,,0.00,,2013-06-24 00:11:00,
2013-06-23 20:22:00,80.0,69.0,30.12,SSE,154,0.0,0.0,69,0.00,,,0.00,,2013-06-24 00:22:00,
2013-06-23 20:33:00,80.0,69.0,30.12,SSE,154,0.0,0.0,69,0.00,,,0.00,,2013-06-24 00:33:00,
2013-06-23 20:42:00,79.0,68.0,30.12,SSE,154,0.0,0.0,70,0.00,,,0.00,,2013-06-24 00:42:00,
2013-06-23 20:52:00,79.0,68.0,30.12,SSE,154,0.0,3.0,69,0.00,,,0.00,,2013-06-24 00:52:00,
2013-06-23 21:02:00,79.0,68.0,30.12,SSE,154,0.0,3.0,69,0.00,,,0.00,,2013-06-24 01:02:00,
2013-06-23 21:11:00,79.0,68.0,30.12,SSE,150,0.0,2.0,69,0.00,,,0.00,,2013-06-24 01:11:00,
2013-06-23 21:22:00,78.0,67.0,30.13,SSE,150,0.0,2.0,68,0.00,,,0.00,,2013-06-24 01:22:00,
2013-06-23 21:32:00,78.0,67.0,30.13,SSE,150,0.0,2.0,68,0.00,,,0.00,,2013-06-24 01:32:00,
2013-06-23 21:42:00,77.0,67.0,30.12,SSE,150,0.0,0.0,71,0.00,,,0.00,,2013-06-24 01:42:00,
2013-06-23 21:53:00,77.0,67.0,30.13,SSE,150,0.0,0.0,71,0.00,,,0.00,,2013-06-24 01:53:00,
2013-06-23 22:02:00,77.0,67.0,30.13,SSE,150,0.0,0.0,71,0.00,,,0.00,,2013-06-24 02:02:00,
2013-06-23 22:11:00,76.0,67.0,30.14,SSE,150,0.0,0.0,74,0.00,,,0.00,,2013-06-24 02:11:00,
2013-06-23 22:22:00,76.0,67.0,30.15,SSE,150,0.0,0.0,75,0.00,,,0.00,,2013-06-24 02:22:00,
2013-06-23 22:33:00,76.0,67.0,30.15,SSE,150,0.0,0.0,75,0.00,,,0.00,,2013-06-24 02:33:00,
2013-06-23 22:42:00,75.0,67.0,30.15,SSE,150,0.0,0.0,76,0.00,,,0.00,,2013-06-24 02:42:00,
2013-06-23 22:53:00,75.0,67.0,30.16,SSE,150,0.0,0.0,77,0.00,,,0.00,,2013-06-24 02:53:00,
2013-06-23 23:01:00,75.0,67.0,30.16,SSE,150,0.0,0.0,77,0.00,,,0.00,,2013-06-24 03:01:00,
2013-06-23 23:11:00,75.0,67.0,30.16,SSE,150,0.0,0.0,76,0.00,,,0.00,,2013-06-24 03:11:00,
2013-06-23 23:22:00,75.0,68.0,30.16,SSE,150,0.0,0.0,78,0.00,,,0.00,,2013-06-24 03:22:00,
2013-06-23 23:33:00,75.0,68.0,30.16,SSE,150,0.0,0.0,78,0.00,,,0.00,,2013-06-24 03:33:00,
2013-06-23 23:43:00,74.0,68.0,30.17,SSE,150,0.0,0.0,82,0.00,,,0.00,,2013-06-24 03:43:00,
2013-06-23 23:53:00,74.0,69.0,30.17,SSE,150,0.0,0.0,84,0.00,,,0.00,,2013-06-24 03:53:00,